• en France
  • Liste des pays
  • À 7 jours
  • Température de l'eau
  • Carte satellitaire
  • Carte météo
  • Widgets météo
  • user-avatar
    Se connecter

    Météo par heure à Hasavyurt

    Ce jour, 19 Août, Dimanche

    Heure Température Précipitation Vent Pression Humidité
    00:00 +25°C° 0,2 mm 3 m/s 748 mmHg 56%
    01:00 +24°C° 0 mm 3 m/s 748 mmHg 57%
    02:00 +24°C° 0 mm 2 m/s 748 mmHg 58%
    03:00 +24°C° 0 mm 2 m/s 748 mmHg 59%
    04:00 +23°C° 0 mm 2 m/s 748 mmHg 60%
    05:00 +23°C° 0 mm 2 m/s 748 mmHg 60%
    06:00 +23°C° 0 mm 2 m/s 748 mmHg 60%
    07:00 +25°C° 0 mm 2 m/s 749 mmHg 54%
    08:00 +27°C° 0 mm 3 m/s 749 mmHg 48%
    09:00 +29°C° 0 mm 3 m/s 749 mmHg 42%
    10:00 +30°C° 0 mm 3 m/s 749 mmHg 40%
    11:00 +32°C° 0 mm 4 m/s 749 mmHg 38%
    12:00 +33°C° 0 mm 4 m/s 749 mmHg 35%
    13:00 +32°C° 0,1 mm 4 m/s 749 mmHg 38%
    14:00 +30°C° 0,1 mm 5 m/s 749 mmHg 41%
    15:00 +29°C° 0,1 mm 5 m/s 749 mmHg 44%
    16:00 +28°C° 0,1 mm 4 m/s 749 mmHg 46%
    17:00 +27°C° 0,1 mm 4 m/s 750 mmHg 49%
    18:00 +26°C° 0,1 mm 3 m/s 750 mmHg 51%
    19:00 +25°C° 0 mm 3 m/s 750 mmHg 55%
    20:00 +23°C° 0 mm 2 m/s 751 mmHg 58%
    21:00 +21°C° 0 mm 2 m/s 751 mmHg 62%
    22:00 +21°C° 0 mm 1 m/s 751 mmHg 64%
    23:00 +21°C° 0 mm 1 m/s 751 mmHg 66%

    Demain, 20 Août, Lundi

    Heure Température Précipitation Vent Pression Humidité
    00:00 +20°C° 0 mm 1 m/s 751 mmHg 68%
    01:00 +20°C° 0 mm 1 m/s 751 mmHg 68%
    02:00 +20°C° 0 mm 1 m/s 751 mmHg 67%
    03:00 +19°C° 0 mm 1 m/s 751 mmHg 67%
    04:00 +19°C° 0 mm 1 m/s 752 mmHg 66%
    05:00 +19°C° 0 mm 1 m/s 752 mmHg 65%
    06:00 +18°C° 0 mm 2 m/s 752 mmHg 64%
    07:00 +21°C° 0 mm 2 m/s 752 mmHg 55%
    08:00 +24°C° 0 mm 3 m/s 752 mmHg 46%
    09:00 +27°C° 0 mm 3 m/s 752 mmHg 37%
    10:00 +28°C° 0 mm 4 m/s 752 mmHg 34%
    11:00 +29°C° 0 mm 4 m/s 752 mmHg 31%
    12:00 +30°C° 0 mm 5 m/s 752 mmHg 28%
    13:00 +30°C° 0 mm 6 m/s 752 mmHg 29%
    14:00 +30°C° 0 mm 6 m/s 751 mmHg 31%
    15:00 +30°C° 0 mm 6 m/s 751 mmHg 32%
    16:00 +29°C° 0 mm 6 m/s 751 mmHg 36%
    17:00 +28°C° 0 mm 6 m/s 751 mmHg 40%
    18:00 +26°C° 0 mm 6 m/s 751 mmHg 44%
    19:00 +25°C° 0 mm 5 m/s 751 mmHg 49%
    20:00 +23°C° 0 mm 5 m/s 752 mmHg 54%
    21:00 +22°C° 0 mm 4 m/s 752 mmHg 59%
    22:00 +22°C° 0 mm 4 m/s 751 mmHg 60%
    23:00 +21°C° 0 mm 4 m/s 751 mmHg 61%

    Après-demain, 21 Août, Mardi

    Heure Température Précipitation Vent Pression Humidité
    00:00 +21°C° 0 mm 4 m/s 751 mmHg 62%
    01:00 +21°C° 0 mm 4 m/s 751 mmHg 62%
    02:00 +21°C° 0 mm 4 m/s 751 mmHg 62%
    03:00 +21°C° 0 mm 4 m/s 750 mmHg 63%
    04:00 +21°C° 0 mm 4 m/s 750 mmHg 63%
    05:00 +21°C° 0 mm 3 m/s 750 mmHg 63%
    06:00 +21°C° 0 mm 3 m/s 750 mmHg 63%
    07:00 +25°C° 0 mm 4 m/s 750 mmHg 56%
    08:00 +27°C° 0 mm 4 m/s 750 mmHg 49%
    09:00 +29°C° 0 mm 4 m/s 750 mmHg 42%
    10:00 +30°C° 0 mm 5 m/s 750 mmHg 39%
    11:00 +32°C° 0 mm 5 m/s 750 mmHg 36%
    12:00 +33°C° 0 mm 6 m/s 750 mmHg 33%
    13:00 +33°C° 0 mm 6 m/s 749 mmHg 34%
    14:00 +33°C° 0 mm 6 m/s 749 mmHg 35%
    15:00 +33°C° 0 mm 6 m/s 749 mmHg 35%
    16:00 +32°C° 0,1 mm 5 m/s 749 mmHg 40%
    17:00 +30°C° 0,1 mm 5 m/s 749 mmHg 45%
    18:00 +28°C° 0,1 mm 4 m/s 749 mmHg 50%
    19:00 +27°C° 0 mm 4 m/s 749 mmHg 56%
    20:00 +26°C° 0 mm 4 m/s 749 mmHg 62%
    21:00 +25°C° 0 mm 3 m/s 750 mmHg 68%
    22:00 +24°C° 0 mm 3 m/s 750 mmHg 70%
    23:00 +24°C° 0 mm 3 m/s 749 mmHg 71%

    22 Août, Mercredi

    Heure Température Précipitation Vent Pression Humidité
    00:00 +24°C° 0 mm 2 m/s 749 mmHg 73%
    01:00 +23°C° 0 mm 2 m/s 749 mmHg 74%
    02:00 +23°C° 0 mm 2 m/s 749 mmHg 75%
    03:00 +21°C° 0 mm 2 m/s 749 mmHg 76%
    04:00 +23°C° 0 mm 1 m/s 749 mmHg 74%
    05:00 +23°C° 0 mm 1 m/s 749 mmHg 72%
    06:00 +23°C° 0 mm 1 m/s 749 mmHg 71%
    07:00 +26°C° 0 mm 1 m/s 749 mmHg 62%
    08:00 +28°C° 0 mm 1 m/s 750 mmHg 53%
    09:00 +30°C° 0 mm 1 m/s 750 mmHg 44%
    10:00 +32°C° 0 mm 2 m/s 749 mmHg 40%
    11:00 +34°C° 0 mm 2 m/s 749 mmHg 37%
    12:00 +35°C° 0 mm 2 m/s 749 mmHg 33%
    13:00 +35°C° 0 mm 2 m/s 749 mmHg 33%
    14:00 +36°C° 0 mm 3 m/s 749 mmHg 32%
    15:00 +36°C° 0 mm 3 m/s 749 mmHg 31%
    16:00 +35°C° 0 mm 3 m/s 749 mmHg 34%
    17:00 +34°C° 0 mm 3 m/s 749 mmHg 36%
    18:00 +33°C° 0 mm 3 m/s 749 mmHg 39%
    19:00 +30°C° 0 mm 2 m/s 749 mmHg 44%
    20:00 +28°C° 0 mm 2 m/s 750 mmHg 49%
    21:00 +26°C° 0 mm 2 m/s 750 mmHg 55%
    22:00 +25°C° 0 mm 2 m/s 750 mmHg 56%
    23:00 +25°C° 0 mm 1 m/s 750 mmHg 57%

    23 Août, Jeudi

    Heure Température Précipitation Vent Pression Humidité
    00:00 +25°C° 0 mm 1 m/s 750 mmHg 59%
    01:00 +24°C° 0 mm 1 m/s 750 mmHg 59%
    02:00 +24°C° 0 mm 1 m/s 750 mmHg 59%
    03:00 +24°C° 0 mm 2 m/s 750 mmHg 59%
    04:00 +24°C° 0 mm 2 m/s 750 mmHg 59%
    05:00 +25°C° 0 mm 1 m/s 750 mmHg 59%
    06:00 +25°C° 0 mm 1 m/s 751 mmHg 59%
    07:00 +27°C° 0 mm 1 m/s 751 mmHg 52%
    08:00 +29°C° 0 mm 1 m/s 751 mmHg 45%
    09:00 +32°C° 0 mm 1 m/s 751 mmHg 38%
    10:00 +34°C° 0 mm 2 m/s 751 mmHg 35%
    11:00 +35°C° 0 mm 2 m/s 751 mmHg 33%
    12:00 +36°C° 0 mm 3 m/s 751 mmHg 30%
    13:00 +35°C° 0 mm 4 m/s 751 mmHg 29%
    14:00 +35°C° 0 mm 4 m/s 751 mmHg 29%
    15:00 +35°C° 0 mm 5 m/s 750 mmHg 29%
    16:00 +34°C° 0 mm 5 m/s 751 mmHg 32%
    17:00 +32°C° 0 mm 5 m/s 751 mmHg 35%
    18:00 +30°C° 0 mm 4 m/s 751 mmHg 38%
    19:00 +28°C° 0 mm 4 m/s 751 mmHg 45%
    20:00 +27°C° 0 mm 3 m/s 752 mmHg 53%
    21:00 +25°C° 0 mm 3 m/s 752 mmHg 60%
    22:00 +24°C° 0 mm 3 m/s 752 mmHg 63%
    23:00 +24°C° 0 mm 3 m/s 752 mmHg 66%

    24 Août, Vendredi

    Heure Température Précipitation Vent Pression Humidité
    00:00 +24°C° 0 mm 3 m/s 752 mmHg 69%
    01:00 +22°C° 0 mm 3 m/s 752 mmHg 71%
    02:00 +22°C° 0 mm 3 m/s 752 mmHg 72%
    03:00 +22°C° 0 mm 3 m/s 752 mmHg 74%
    04:00 +22°C° 0 mm 3 m/s 752 mmHg 73%
    05:00 +22°C° 0 mm 3 m/s 752 mmHg 72%
    06:00 +24°C° 0 mm 3 m/s 752 mmHg 71%
    07:00 +26°C° 0 mm 4 m/s 752 mmHg 61%
    08:00 +28°C° 0 mm 5 m/s 752 mmHg 52%
    09:00 +30°C° 0 mm 5 m/s 752 mmHg 43%
    10:00 +32°C° 0 mm 6 m/s 752 mmHg 41%
    11:00 +33°C° 0 mm 7 m/s 752 mmHg 38%
    12:00 +33°C° 0 mm 7 m/s 751 mmHg 36%
    13:00 +33°C° 0 mm 7 m/s 751 mmHg 37%
    14:00 +33°C° 0 mm 8 m/s 751 mmHg 38%
    15:00 +32°C° 0 mm 8 m/s 751 mmHg 38%
    16:00 +30°C° 0 mm 7 m/s 751 mmHg 42%
    17:00 +28°C° 0 mm 7 m/s 751 mmHg 45%
    18:00 +27°C° 0 mm 6 m/s 751 mmHg 48%
    19:00 +26°C° 0 mm 6 m/s 751 mmHg 52%
    20:00 +25°C° 0 mm 5 m/s 752 mmHg 57%
    21:00 +23°C° 0 mm 4 m/s 752 mmHg 61%
    22:00 +23°C° 0 mm 4 m/s 752 mmHg 61%
    23:00 +22°C° 0 mm 4 m/s 751 mmHg 62%
    Voir plus